Location: ??????????
(54.4061°N, 22.6114°E)
Time: 06:12:06
(UTC+00:00)

STARLINK-41 - Pass Details

Date: 23 October 2019
Orbit: 548 x 551 km, 53.0° (Epoch: 10 November)

Event Time Altitude Azimuth Distance (km) Brightness Sun altitude
Rises 16:59:42 0° 276° (W) 2,719 9.0 -16.0°
Reaches altitude 10° 17:01:56 10° 273° (W) 1,825 7.6 -16.3°
Maximum altitude 17:06:03 66° 192° (SSW) 604 3.8 -16.9°
Enters shadow 17:07:43 34° 121° (ESE) 925 4.3 -17.1°
